Content
SEND FEEDBACK

Daily
Averages
Monthly
Summary
United States of America

BOX ELDER, SOUTH DAKOTA


Home > North America > United States > South Dakota
Elevation: 3170 feet     Latitude: 44 09N     Longitude: 103 06W

WEATHER
 
SELECT A DAY
Number of Records: 209,773;   Date Range: 1/1/95 - 12/17/14
 
SHARE

PRINT THIS DATA

[ ← Previous Day ]
WEATHER ALMANAC - FEBRUARY 6, 2013
[ Next Day → ]
[ °C ]   °F
Weather ElementAverageHighLow
Temperature37.6 °F49.6 °F (11:55 am)26.4 °F (9:55 pm)
Dewpoint23.1 °F26.4 °F (8:55 am)20.1 °F (9:55 pm)
Humidity58.2 %77 % (9:55 pm)36 % (2:55 pm)
Barometer29.90 in30.08 in (8:55 pm)29.74 in (2:55 am)
Wind Speed11.1 mph26.5 mph (12:55 pm)
Wind Gust34.5 mph (12:55 pm)
Weather ElementAverage
Visibility10 mi
Wind DirectionWNW (304.8 °)

Weather ElementTotal
Precipitation---
Heating Degree Days27 (Base 65)
Averaged from 23 records on February 6, 2013
WEATHER CONDITIONS BREAKOUT
WIND DIRECTION BREAKOUT
WEATHER BY HOUR - FEBRUARY 6, 2013
[ °C ]   °F
Local TimeTemperatureDewpointHumidityBarometerVisibilityWind DirectionWind SpeedGust SpeedPrecipitationEventsConditions
1:55 AM32.7 °F22.6 °F66 %29.76 in10.0 miNW (320°)4.6 mphClear
2:55 AM34.2 °F24.8 °F69 %29.74 in10.0 miNNW (330°)9.2 mphClear
3:55 AM29.7 °F22.3 °F74 %29.75 in10.0 miWNW (290°)5.8 mphClear
4:55 AM30.6 °F22.8 °F73 %29.77 in10.0 miNW (320°)8.1 mphClear
5:55 AM34.3 °F23.0 °F63 %29.78 in10.0 miNW (310°)4.6 mphClear
6:55 AM32.0 °F23.7 °F71 %29.80 in10.0 miCalmClear
7:55 AM33.6 °F25.0 °F71 %29.83 in10.0 miNorth (350°)5.8 mphClear
8:55 AM37.0 °F26.4 °F65 %29.85 in10.0 miWSW (250°)5.8 mph
9:55 AM46.2 °F26.1 °F45 %29.85 in10.0 miNNW (330°)13.8 mphMostly Cloudy
10:55 AM48.9 °F24.1 °F38 %29.86 in10.0 miNorth (360°)21.9 mph28.8 mphScattered Clouds
11:55 AM49.6 °F24.4 °F37 %29.85 in10.0 miNorth (350°)23.0 mph27.6 mphMostly Cloudy
12:55 PM49.5 °F25.7 °F40 %29.87 in10.0 miNorth (350°)26.5 mph34.5 mphMostly Cloudy
1:55 PM48.9 °F24.3 °F38 %29.86 in10.0 miNNW (330°)25.3 mph33.4 mphMostly Cloudy
2:55 PM48.2 °F22.3 °F36 %29.89 in10.0 miNNW (340°)21.9 mph31.1 mphOvercast
3:55 PM46.0 °F23.2 °F41 %29.94 in10.0 miNNW (330°)17.3 mph21.9 mphMostly Cloudy
4:55 PM44.6 °F22.3 °F41 %29.96 in10.0 miNNW (330°)11.5 mphMostly Cloudy
5:55 PM41.2 °F21.6 °F46 %29.99 in10.0 miNNW (340°)9.2 mphPartly Cloudy
6:55 PM32.0 °F21.0 °F64 %30.04 in10.0 miNW (310°)10.4 mphClear
7:55 PM32.0 °F21.6 °F65 %30.06 in10.0 miNW (310°)6.9 mphClear
8:55 PM28.8 °F21.0 °F73 %30.08 in10.0 miWNW (290°)6.9 mphScattered Clouds
9:55 PM26.4 °F20.1 °F77 %30.07 in10.0 miWNW (290°)6.9 mphClear
10:55 PM28.2 °F21.0 °F74 %30.07 in10.0 miWNW (300°)6.9 mphClear
11:55 PM29.7 °F21.4 °F71 %30.08 in10.0 miWest (280°)3.5 mphClear
Hourly data recorded from KRCA, located miles away from Box Elder, South Dakota







STORIES FROM OUR PARTNERS